Tracking 18186 objects as of 31-March-2017
HD Live streaming from Space Station
objects crossing your sky now

CZ-2D DEB

Track CZ-2D DEB now!
10-day predictions


NORAD ID: 28742
Int'l Code: 2005-024F
Perigee: 518.7 km
Apogee: 684.4 km
Inclination: 97.7 °
Period: 96.6 minutes
Semi major axis: 6972 km
RCS: 0.0146 m2 (small)
Launch date: July 5, 2005
Source: People's Republic of China (PRC)
Launch site: Jiuquan Satellite Launch Center, China (JSC)

Note: This is SATELLITE DEBRIS
Your satellite tracking list
Your tracking list is empty





NASA's NSSDC Master Catalog

Two Line Element Set (TLE):
1 28742U 05024F   17087.40767751 +.00007153 +00000-0 +63513-3 0  9991
2 28742 097.6710 248.6983 0118821 127.0738 234.1415 14.91116726625049
Source of the keplerian elements: AFSPC